Regional Weather Roundup
Issued by NWS Northern Indiana

Home | Current Version | Previous Version | Text Only | Print | Product List | Glossary On
Versions: 1 2 3 4 5 6 7 8 9 10 11 12 13 14 15 16 17 18 19 20 21 22 23 24 25 26 27 28 29 30 31 32 33 34 35 36 37 38 39 40 41 42 43 44 45 46 47 48 49 50
000
ASUS43 KIWX 031310
RWRIWX

KIWX WEATHER ROUNDUP
NATIONAL WEATHER SERVICE NORTHERN INDIANA
900 AM EDT TUE MAY 03 2016

NOTE: "FAIR" INDICATES FEW OR NO CLOUDS BELOW 12,000 FEET WITH NO
SIGNIFICANT WEATHER AND/OR OBSTRUCTIONS TO VISIBILITY.

* THESE STATIONS ARE NOT UNDER NWS QUALITY CONTROL. THEY ALSO MAY NOT
  REPORT WEATHER SUCH AS PRECIPITATION OR FOG.

INZ001>027-031400-
NORTHERN INDIANA

CITY           SKY/WX    TMP DP  RH WIND       PRES   REMARKS
GARY*          MOSUNNY   50  45  81 W6        29.98S
VALPARAISO     FAIR      52  38  58 N3        29.98S
MICHIGAN CITY* FAIR      45  45 100 CALM      29.98F
LAPORTE*       FAIR      50  38  63 NW5       29.98S
KNOX*          CLOUDY    45  34  65 CALM      29.98S
SOUTH BEND     FAIR      49  39  68 NW7       29.97S
ELKHART*       FAIR      48  46  93 CALM      29.97S
GOSHEN         CLOUDY    51  46  83 W3        29.96R
MONTICELLO*    CLOUDY    49  41  74 NW8       29.97S
LOGANSPORT*    CLOUDY    50  48  93 N5        29.97S
ROCHESTER*     PTSUNNY   52  50  93 CALM      29.97R
WARSAW*        LGT RAIN  50  46  87 CALM      29.96S
ANGOLA*        CLOUDY    48  39  71 CALM      29.94F
FORT WAYNE     LGT RAIN  51  48  89 N3        29.96S
HUNTINGTON*    DRIZZLE   48  47  96 N3        29.96R
PERU/GRISSOM   LGT RAIN  50  50 100 N5        29.95R
MARION*        CLOUDY    49  47  95 N6        29.96S FOG

$$
INZ028>050-031400-
CENTRAL INDIANA

CITY           SKY/WX    TMP DP  RH WIND       PRES   REMARKS
LAFAYETTE      CLOUDY    48  42  80 N9        29.98R
KOKOMO*        PTSUNNY   50  46  87 N8        29.96S
MUNCIE*        CLOUDY    51  46  83 NE6       29.94S HAZE
INDIANAPOLIS   LGT RAIN  51  48  89 NW13      29.94R

$$
MIZ043>046-050>051-056>058-064>065-071>073-077>080-031400-
SOUTHWEST LOWER MICHIGAN

CITY           SKY/WX    TMP DP  RH WIND       PRES   REMARKS
BATTLE CREEK   FAIR      52  43  71 NW3       29.95S
BENTON HARBOR  FAIR      48  42  80 W3        29.97S
COLDWATER*     FAIR      51  45  79 CALM      29.95S
HILLSDALE*     CLOUDY    49  41  71 CALM      29.93F
HOLLAND        FAIR      50  40  68 W3        29.96S
GRAND RAPIDS   FAIR      51  39  63 W8        29.95S
KALAMAZOO      FAIR      53  43  68 NW5       29.96S
STURGIS*       PTSUNNY   50  44  78 CALM      29.94
THREE RIVERS*  FAIR      53  45  74 NW3       29.95F

$$
OHZ001>008-015>018-024>025-031400-
NORTHWEST OHIO

CITY           SKY/WX    TMP DP  RH WIND       PRES   REMARKS
WAUSEON*         N/A     50 N/A N/A N3        29.94R
DEFIANCE       CLOUDY    50  47  89 CALM      29.95S
FINDLAY        CLOUDY    51  43  74 N6        29.93S
TOLEDO EXPRESS PTSUNNY   51  46  83 CALM      29.93F
TOLEDO METCALF PTSUNNY   52  45  77 W3        29.94S HAZE
LIMA           CLOUDY    49  45  86 N7        29.93S

$$
AND FOR LAKE MICHIGAN COASTAL AND OPEN LAKE BUOY OBSERVATIONS

STATION/POSITION TEMP    WIND        PRES    VSBY  WAVE
                 AIR SEA DIR/SP/G                  HT/PER
                 (F)     (DEG/KT/KT) (MB)    (MI)  (FT/S)
CALUMET HARBOR    46     210/  1/  3 1014.7R
MICHIGAN CITY     49     310/  1/  2   N/A
BURNS HARBOR      47     310/  3/  6 1015.6S
SAINT JOSEPH      47      CALM  /  1 1015.2F
SOUTH LAKE BUOY   42 41  170/  4/  6 1014.5F         0
4 MI NW BRIDGMAN  46 48                N/A           1/ 3

$$
&&



USA.gov is the U.S. government's official web portal to all federal, state and local government web resources and services.